Regional Weather Roundup
Issued by NWS

Home | Current Version | Previous Version | Text Only | Print | Product List | Glossary Off
Versions: 1 2 3 4 5 6 7 8 9 10 11 12 13 14 15 16 17 18 19 20 21 22 23 24 25 26 27 28 29 30 31 32 33 34 35 36 37 38 39 40 41 42 43 44 45 46 47 48 49 50

000
ASUS45 KCYS 281110
RWRWY

WYOMING REGIONAL WEATHER ROUNDUP
NATIONAL WEATHER SERVICE CHEYENNE WY
500 AM MDT THU AUG 28 2014

NOTE:  "FAIR" INDICATES FEW OR NO CLOUDS BELOW 12,000 FEET
WITH NO SIGNIFICANT WEATHER AND/OR OBSTRUCTIONS TO VISIBILITY.

WYZ001-281200-
YELLOWSTONE NATIONAL PARK

CITY           SKY/WX    TMP DP  RH WIND       PRES   REMARKS
LK YELLOWSTONE   N/A     37  35  92 NW3       30.38S
W YELLOWSTONE  NOT AVBL

$$
WYZ002>013-054>058-071-098>099-281200-
NORTHERN WYOMING

CITY           SKY/WX    TMP DP  RH WIND       PRES   REMARKS
JACKSON        CLEAR     41  39  93 N6        30.30S
CODY           CLEAR     54  45  71 CALM      30.14S
GREYBULL       CLEAR     54  51  90 SE3       30.09S
WORLAND        CLEAR     52  50  93 CALM      30.10S
SHERIDAN       CLEAR     51  45  79 CALM      30.05S
BUFFALO        PTCLDY    57  43  59 W9        30.11S
GILLETTE       CLOUDY    60  53  77 SW6       30.06S
HULETT         FAIR      54  52  94 MISG      30.07
NEWCASTLE      FAIR      57  55  94 CALM      30.06

$$
WYZ014>020-022>026-101>103-281200-
CENTRAL WYOMING

CITY           SKY/WX    TMP DP  RH WIND       PRES   REMARKS
BIG PINEY      CLEAR     41  39  93 SE3       30.31S FOG
PINEDALE       SUNNY     39  39 100 CALM      30.32R
DUBOIS         FAIR      45  37  76 NW7       30.30S
LANDER         PTCLDY    52  45  77 SW3       30.18S
RIVERTON       CLEAR     54  52  93 NW5       30.19S
CASPER         CLOUDY    56  53  90 SW9       30.14S
DOUGLAS        CLOUDY    59  55  87 NW10      30.11S

$$
WYZ021-027>030-104>119-281200-
SOUTHERN WYOMING

CITY           SKY/WX    TMP DP  RH WIND       PRES   REMARKS
EVANSTON       CLEAR     47  45  93 SW8       30.35S
KEMMERER       SUNNY     46  45  93 W5        30.35R
FORT BRIDGER     N/A     51  47  85 W12       30.35S
ROCK SPRINGS   MOCLDY    48  46  93 W9        30.29S
DIXON          CLOUDY    52  50  94 CALM      30.30S
RAWLINS        LGT RAIN  51  49  92 SW16      30.25S
SARATOGA       CLOUDY    50  48  93 CALM      30.28S
LARAMIE        MOCLDY    45  43  93 E5        30.23S
CHEYENNE       PTCLDY    52  45  77 W10       30.15F
TORRINGTON     CLOUDY    58  57  97 W6        30.04F
PINE BLUFFS    FAIR      50  46  87 CALM      30.10F

$$



USA.gov is the U.S. government's official web portal to all federal, state and local government web resources and services.